[[{"header":{"parameterUnit":"m.s-1","parameterCategory":1,"la1":30.2991,"la2":30.254,"lo1":-89.0895,"lo2":-89.0444,"dy":0.0017,"dx":0.0017,"nx":28,"ny":28,"refTime":"2025-04-11T03:00:00:Z","depth":0,"parameterNumber":2,"parameterNumberName":"U-component_of_WINDS"},"data":[0,0,0,0,0,0,0,0,0,0,0,0,0,0,0,0,0,0,0,0,0,0,0,0,0,0,0,0,0,0,0,0,0,0,0,0,0,0,0,0,0,0,0,0,0,0,0,0,0,0,0,0,0,0,0,0,0,0,-0.3931,-0.3931,0,-0.3919,-0.3919,-0.3919,-0.3872,-0.3871,-0.387,-0.3868,-0.3859,-0.3859,-0.386,0,0,0,0,0,0,0,0,0,0,0,0,0,-0.3914,-0.3915,-0.3931,-0.3931,-0.393,-0.3919,-0.3919,-0.3919,-0.3872,-0.3871,-0.3869,-0.3868,-0.3858,-0.3859,-0.386,0,0,0,0,0,0,0,0,0,0,0,0,0,-0.3914,-0.3915,-0.3931,-0.3906,-0.3903,-0.3919,-0.3919,-0.3919,-0.3872,-0.3871,-0.3869,-0.3867,-0.3858,-0.3859,-0.386,-0.39,0,0,-0.3864,-0.3864,0,0,0,0,0,0,0,0,-0.3914,-0.3915,-0.391,-0.3907,-0.3905,-0.3895,-0.3909,-0.3912,-0.3873,-0.3884,-0.3868,-0.3867,-0.3872,-0.3872,-0.3874,-0.39,-0.3899,-0.3864,-0.3865,-0.3865,-0.3865,0,0,0,0,0,0,0,-0.3914,-0.3915,-0.3926,-0.391,-0.3907,-0.3895,-0.3894,-0.391,-0.3888,-0.3883,-0.388,-0.3879,-0.3871,-0.3873,-0.3873,-0.3899,-0.3864,-0.3865,-0.3866,-0.3866,-0.3956,-0.3958,0,0,0,0,0,0,-0.3917,-0.3915,-0.3927,-0.3926,-0.3905,-0.3897,-0.3895,-0.39,-0.3887,-0.3884,-0.388,-0.3876,-0.3871,-0.3872,-0.3873,-0.3918,-0.3865,-0.3866,-0.3867,-0.3955,-0.3957,-0.3959,0,0,0,0,0,0,-0.3917,-0.3919,-0.3927,-0.392,-0.392,-0.3899,-0.3905,-0.3901,-0.3902,-0.3885,-0.3881,-0.3886,-0.387,-0.3871,-0.3893,-0.3917,-0.3867,-0.3868,-0.3953,-0.3955,-0.3958,-0.401,0,0,0,0,0,0,-0.3917,-0.3919,-0.3934,-0.392,-0.392,-0.3948,-0.3906,-0.3901,-0.3904,-0.3899,-0.389,-0.3886,-0.3869,-0.3892,-0.3894,-0.3918,-0.3869,-0.395,-0.3954,-0.3957,-0.4006,-0.4014,-0.4021,0,0,0,0,0,-0.3917,-0.395,-0.3935,-0.3937,-0.3938,-0.3949,-0.3949,-0.3928,-0.3906,-0.3921,-0.391,-0.3887,-0.3914,-0.3895,-0.3897,-0.3921,-0.3949,-0.3953,-0.3957,-0.4003,-0.4013,-0.4021,0,0,0,0,0,0,-0.3968,-0.3948,-0.3931,-0.396,-0.3957,-0.3941,-0.396,-0.3939,-0.3942,-0.3938,-0.3912,-0.391,-0.3936,-0.3931,-0.391,-0.3959,-0.3927,-0.3932,-0.3962,-0.3971,-0.3978,-0.398,-0.387,0,0,0,0,0,-0.3983,-0.3993,-0.3974,-0.4002,-0.4001,-0.3981,-0.3985,-0.3968,-0.3964,-0.3963,-0.3953,-0.395,-0.3958,-0.3964,-0.397,-0.4004,-0.4002,-0.4022,-0.403,-0.4036,-0.4041,-0.4059,-0.4068,-0.3971,-0.3971,-0.3971,0,0,-0.4013,-0.4003,-0.4012,-0.4012,-0.4008,-0.4019,-0.398,-0.3994,-0.4003,-0.3965,-0.3986,-0.3978,-0.3973,-0.4002,-0.4014,-0.3998,-0.4066,-0.4041,-0.4046,-0.4047,-0.4063,-0.4073,-0.4081,-0.3974,-0.3974,-0.3973,0,0,-0.4076,-0.4069,-0.4091,-0.4087,-0.408,-0.4065,-0.4071,-0.4058,-0.4051,-0.4071,-0.4043,-0.4053,-0.4067,-0.4064,-0.4065,-0.4124,-0.4104,-0.4127,-0.4167,-0.4184,-0.4192,-0.4198,-0.422,-0.4229,-0.4131,-0.4132,-0.4132,0,-0.4115,-0.4131,-0.4105,-0.4121,-0.4123,-0.4087,-0.411,-0.4107,-0.4103,-0.4105,-0.4087,-0.4103,-0.4097,-0.4125,-0.4139,-0.414,-0.4146,-0.4129,-0.4193,-0.4199,-0.4205,-0.4226,-0.4234,-0.4135,-0.4134,-0.4134,-0.4134,0,-0.418,-0.4192,-0.4211,-0.4206,-0.4209,-0.4229,-0.4206,-0.4213,-0.4195,-0.4183,-0.4204,-0.4195,-0.4199,-0.4204,-0.4188,-0.4229,-0.4219,-0.4197,-0.4166,-0.4217,-0.4236,-0.4244,-0.4139,-0.4138,-0.4137,-0.4136,0,0,-0.4277,-0.4257,-0.4264,-0.4262,-0.425,-0.4259,-0.4276,-0.4279,-0.4285,-0.4283,-0.4297,-0.4309,-0.4288,-0.4289,-0.4271,-0.4287,-0.4335,-0.4262,-0.4262,-0.4277,-0.4381,-0.4399,-0.4408,-0.432,-0.4321,-0.4322,-0.4381,0,-0.4337,-0.4365,-0.4342,-0.4375,-0.4385,-0.4351,-0.4366,-0.4361,-0.435,-0.4357,-0.4344,-0.4353,-0.4325,-0.4325,-0.4338,-0.4326,-0.4356,-0.4321,-0.4334,-0.4335,-0.4338,-0.4418,-0.4437,-0.4493,-0.4388,-0.439,-0.4391,0,-0.4412,-0.4412,-0.4445,-0.4431,-0.4434,-0.4448,-0.4449,-0.4456,-0.4449,-0.4439,-0.4439,-0.4418,-0.4434,-0.4401,-0.4424,-0.4401,-0.4404,-0.4399,-0.4401,-0.4403,-0.4367,-0.4423,-0.451,-0.452,-0.4402,-0.4401,-0.44,0,-0.448,-0.4488,-0.4509,-0.4508,-0.4492,-0.4502,-0.4496,-0.4487,-0.449,-0.449,-0.4492,-0.4494,-0.4496,-0.4498,-0.4477,-0.4455,-0.4503,-0.4468,-0.4496,-0.4497,-0.4509,-0.4509,-0.46,-0.4509,-0.4509,-0.4509,-0.4509,0,-0.4551,-0.4573,-0.454,-0.4553,-0.4577,-0.4549,-0.4574,-0.4564,-0.4556,-0.4567,-0.4537,-0.4548,-0.452,-0.4528,-0.4512,-0.4533,-0.4533,-0.4527,-0.4523,-0.4531,-0.4532,-0.4534,-0.453,-0.4511,-0.451,-0.451,-0.451,0,-0.4633,-0.4611,-0.4632,-0.4614,-0.461,-0.4628,-0.4613,-0.4625,-0.461,-0.4624,-0.4626,-0.4604,-0.4612,-0.4591,-0.4596,-0.4585,-0.4615,-0.4604,-0.4618,-0.4615,-0.4644,-0.4643,-0.4741,-0.4753,-0.4653,-0.4654,-0.4655,0,-0.468,-0.4696,-0.4679,-0.4684,-0.4679,-0.4687,-0.4689,-0.4662,-0.4666,-0.4658,-0.4671,-0.4676,-0.4679,-0.4693,-0.4678,-0.4681,-0.467,-0.4705,-0.4671,-0.4678,-0.4672,-0.4672,-0.4674,-0.4712,-0.4714,-0.4715,-0.4715,0,-0.4767,-0.4755,-0.4759,-0.4759,-0.4762,-0.4761,-0.4758,-0.4764,-0.4735,-0.4741,-0.4747,-0.4749,-0.4753,-0.4759,-0.4759,-0.4752,-0.473,-0.4726,-0.4733,-0.4742,-0.4749,-0.4747,-0.4639,-0.4724,-0.4723,-0.4723,-0.4722,-0.4722,-0.4834,-0.4847,-0.4836,-0.4842,-0.4836,-0.4833,-0.4843,-0.4829,-0.4834,-0.4835,-0.4819,-0.4829,-0.4821,-0.4818,-0.4814,-0.4822,-0.4806,-0.4816,-0.4819,-0.4822,-0.4827,-0.4746,-0.4821,-0.4821,-0.4821,-0.4821,-0.482,0,-0.492,-0.4911,-0.4916,-0.4912,-0.4916,-0.4892,-0.4887,-0.4893,-0.4902,-0.4896,-0.4898,-0.4906,-0.4911,-0.4895,-0.4898,-0.4907,-0.4897,-0.4909,-0.4909,-0.4908,-0.4841,-0.4835,-0.4917,-0.4917,-0.4917,-0.4917,-0.4917,-0.4917,-0.4966,-0.4986,-0.4973,-0.499,-0.498,-0.499,-0.4989,-0.4987,-0.4981,-0.4991,-0.4995,-0.4984,-0.4974,-0.4975,-0.4978,-0.4973,-0.4976,-0.4992,-0.4984,-0.4922,-0.4913,-0.4904,-0.4898,-0.4993,-0.4993,-0.5051,-0.5052,-0.5052]},{"header":{"parameterUnit":"m.s-1","parameterCategory":1,"la1":30.2991,"la2":30.254,"lo1":-89.0895,"lo2":-89.0444,"dy":0.0017,"dx":0.0017,"nx":28,"ny":28,"refTime":"2025-04-11T03:00:00:Z","depth":0,"parameterNumber":3,"parameterNumberName":"V-component_of_WINDS"},"data":[0,0,0,0,0,0,0,0,0,0,0,0,0,0,0,0,0,0,0,0,0,0,0,0,0,0,0,0,0,0,0,0,0,0,0,0,0,0,0,0,0,0,0,0,0,0,0,0,0,0,0,0,0,0,0,0,0,0,-6.1557,-6.1558,0,-6.1697,-6.1698,-6.17,-6.1605,-6.16,-6.1596,-6.1592,-6.1733,-6.1741,-6.1749,0,0,0,0,0,0,0,0,0,0,0,0,0,-6.1205,-6.1212,-6.1556,-6.1558,-6.156,-6.1696,-6.1698,-6.17,-6.1605,-6.16,-6.1595,-6.159,-6.1731,-6.174,-6.1749,0,0,0,0,0,0,0,0,0,0,0,0,0,-6.1353,-6.1214,-6.1556,-6.1529,-6.1528,-6.1696,-6.1698,-6.1701,-6.1606,-6.16,-6.1593,-6.1587,-6.1728,-6.1739,-6.1751,-6.1952,0,0,-6.1786,-6.1791,0,0,0,0,0,0,0,0,-6.1345,-6.1366,-6.1531,-6.1531,-6.153,-6.1626,-6.1626,-6.1785,-6.1608,-6.1577,-6.1592,-6.1584,-6.1703,-6.1716,-6.1757,-6.1959,-6.1965,-6.1787,-6.1794,-6.1799,-6.1803,0,0,0,0,0,0,0,-6.1334,-6.1359,-6.1612,-6.1534,-6.1533,-6.1509,-6.1523,-6.1656,-6.1674,-6.1579,-6.1572,-6.159,-6.1701,-6.1746,-6.1759,-6.1967,-6.1787,-6.1797,-6.1805,-6.1809,-6.2342,-6.2349,0,0,0,0,0,0,-6.1327,-6.1351,-6.1607,-6.1616,-6.142,-6.1521,-6.1536,-6.1602,-6.1673,-6.1677,-6.1596,-6.1585,-6.1729,-6.1746,-6.1764,-6.2006,-6.1799,-6.181,-6.1817,-6.2335,-6.2344,-6.2351,0,0,0,0,0,0,-6.132,-6.1351,-6.1602,-6.1482,-6.1512,-6.1534,-6.1609,-6.1608,-6.1652,-6.1685,-6.1688,-6.1638,-6.1724,-6.1747,-6.1906,-6.2009,-6.1816,-6.1826,-6.2327,-6.2338,-6.2347,-6.249,0,0,0,0,0,0,-6.131,-6.1349,-6.1426,-6.1484,-6.1519,-6.1743,-6.1615,-6.1616,-6.1673,-6.1661,-6.1725,-6.173,-6.1721,-6.189,-6.1918,-6.2022,-6.1835,-6.2317,-6.2331,-6.2344,-6.2476,-6.2504,-6.2528,0,0,0,0,0,-6.1298,-6.146,-6.143,-6.1462,-6.1616,-6.1749,-6.1769,-6.1756,-6.1682,-6.176,-6.1781,-6.1728,-6.1993,-6.1907,-6.1938,-6.2047,-6.2311,-6.2327,-6.2343,-6.2465,-6.2499,-6.2528,0,0,0,0,0,0,-6.1412,-6.1467,-6.1435,-6.1621,-6.1681,-6.1733,-6.1831,-6.1792,-6.1875,-6.186,-6.1839,-6.1855,-6.2022,-6.2049,-6.1952,-6.2246,-6.214,-6.2163,-6.2222,-6.2255,-6.228,-6.2271,-6.1845,0,0,0,0,0,-6.1459,-6.1563,-6.1605,-6.1765,-6.1797,-6.1809,-6.1866,-6.1851,-6.1913,-6.1937,-6.197,-6.2031,-6.2128,-6.2192,-6.2283,-6.2479,-6.2492,-6.2569,-6.2595,-6.2616,-6.2637,-6.2744,-6.2779,-6.2404,-6.2404,-6.2404,0,0,-6.1557,-6.16,-6.1667,-6.1789,-6.1834,-6.1942,-6.1831,-6.195,-6.203,-6.1955,-6.2108,-6.2134,-6.2201,-6.238,-6.246,-6.2408,-6.2743,-6.2637,-6.2654,-6.2663,-6.2764,-6.28,-6.2831,-6.2415,-6.2413,-6.2411,0,0,-6.1791,-6.1834,-6.1972,-6.202,-6.209,-6.2096,-6.213,-6.2188,-6.2202,-6.2355,-6.2302,-6.2396,-6.2563,-6.2614,-6.2661,-6.2914,-6.2869,-6.2944,-6.3081,-6.3185,-6.3214,-6.3241,-6.3332,-6.3365,-6.2964,-6.2965,-6.2965,0,-6.1904,-6.2066,-6.2048,-6.2172,-6.2228,-6.2165,-6.2306,-6.2352,-6.2448,-6.2488,-6.2428,-6.2637,-6.2678,-6.2868,-6.293,-6.297,-6.3007,-6.2938,-6.3212,-6.3238,-6.3262,-6.3349,-6.3383,-6.2973,-6.2972,-6.2971,-6.2971,0,-6.2202,-6.2314,-6.2418,-6.2513,-6.258,-6.2711,-6.2714,-6.2783,-6.2762,-6.2775,-6.2932,-6.2978,-6.3078,-6.3121,-6.3101,-6.3309,-6.3275,-6.3214,-6.3108,-6.3307,-6.3388,-6.3422,-6.2986,-6.2983,-6.298,-6.2978,0,0,-6.2513,-6.2597,-6.2636,-6.2679,-6.2751,-6.2838,-6.2965,-6.3064,-6.3125,-6.3192,-6.33,-6.3443,-6.3387,-6.3441,-6.3426,-6.3517,-6.3716,-6.3445,-6.3446,-6.3495,-6.3949,-6.3996,-6.4035,-6.3686,-6.3692,-6.3697,-6.3944,0,-6.2753,-6.2978,-6.2966,-6.3177,-6.3281,-6.3223,-6.3335,-6.3391,-6.3406,-6.3496,-6.3512,-6.3615,-6.3533,-6.3565,-6.3653,-6.3674,-6.3808,-6.3655,-6.3786,-6.3791,-6.3774,-6.4078,-6.4128,-6.4359,-6.3976,-6.3981,-6.3985,0,-6.3063,-6.3143,-6.3364,-6.3422,-6.3465,-6.3566,-6.3655,-6.3742,-6.3804,-6.3809,-6.3869,-6.3839,-6.3968,-6.3858,-6.4036,-6.3933,-6.3985,-6.4003,-6.4012,-6.4025,-6.3902,-6.4101,-6.4432,-6.4468,-6.4035,-6.4031,-6.4028,0,-6.3271,-6.3433,-6.3586,-6.3625,-6.3695,-6.3767,-6.38,-6.3856,-6.3916,-6.3993,-6.4032,-6.4123,-6.4174,-6.4245,-6.424,-6.416,-6.4422,-6.431,-6.443,-6.443,-6.4489,-6.4486,-6.4835,-6.452,-6.4519,-6.4519,-6.4518,0,-6.3541,-6.3679,-6.3681,-6.3776,-6.3929,-6.3913,-6.4065,-6.4089,-6.414,-6.4238,-6.4192,-6.4285,-6.4273,-6.4366,-6.4363,-6.4511,-6.4534,-6.4541,-6.4539,-6.4547,-6.4546,-6.4583,-6.4567,-6.4528,-6.4526,-6.4524,-6.4522,0,-6.3799,-6.3806,-6.397,-6.4023,-6.404,-6.4151,-6.4196,-6.4285,-6.4296,-6.4421,-6.445,-6.4467,-6.4575,-6.4577,-6.4699,-6.4697,-6.4879,-6.4858,-6.4859,-6.4856,-6.4976,-6.4965,-6.5363,-6.5414,-6.5063,-6.5067,-6.5069,0,-6.3972,-6.4077,-6.4142,-6.4205,-6.4243,-6.4344,-6.4406,-6.4394,-6.4459,-6.4538,-6.4619,-6.4722,-6.4805,-6.4979,-6.5002,-6.5096,-6.5078,-6.521,-6.5091,-6.5096,-6.5082,-6.5077,-6.5088,-6.5234,-6.5238,-6.5241,-6.5244,0,-6.4279,-6.4277,-6.4368,-6.4461,-6.4535,-6.4607,-6.4674,-6.4728,-6.4723,-6.4799,-6.4909,-6.4973,-6.5099,-6.5202,-6.5293,-6.5325,-6.5285,-6.5281,-6.5314,-6.5324,-6.5321,-6.5326,-6.4925,-6.5272,-6.5269,-6.5267,-6.5266,-6.5265,-6.4502,-6.4593,-6.4653,-6.4756,-6.4804,-6.4868,-6.4955,-6.4977,-6.5069,-6.5172,-6.5158,-6.5281,-6.534,-6.5458,-6.5498,-6.5594,-6.5548,-6.5595,-6.5607,-6.562,-6.5634,-6.5304,-6.561,-6.5609,-6.5608,-6.5608,-6.5607,0,-6.4808,-6.4844,-6.4938,-6.5033,-6.5114,-6.5068,-6.5139,-6.521,-6.5319,-6.5378,-6.546,-6.5587,-6.5687,-6.5718,-6.5815,-6.5886,-6.5869,-6.5912,-6.5907,-6.5916,-6.5669,-6.5631,-6.5923,-6.5923,-6.5923,-6.5923,-6.5923,-6.5923,-6.4977,-6.513,-6.5135,-6.5311,-6.5345,-6.5466,-6.5511,-6.5569,-6.5616,-6.576,-6.5844,-6.5863,-6.5911,-6.6011,-6.6101,-6.6107,-6.6146,-6.6196,-6.6195,-6.5964,-6.5933,-6.5903,-6.5868,-6.6204,-6.6205,-6.6434,-6.6437,-6.6438]}]]